| time (UTC) | temp F | wind direction | speed knots | gust knots | rain 1hr in | rain 24hr in | rain mn in | humidity % | barometer mb |
| 20260504174506 | 53 | 268 | 9.6 | 20.9 | 0.00 | 0.91 | 0.28 | 75 | 1000.2 |
| 20260504173006 | 53 | 284 | 11.3 | 19.1 | 0.00 | 0.91 | 0.28 | 78 | 1000.2 |
| 20260504171503 | 52 | 293 | 9.6 | 20.9 | 0.00 | 0.91 | 0.28 | 79 | 1000.0 |
| 20260504081529 | 36 | 262 | 15.6 | 23.5 | 0.03 | 0.80 | 0.16 | 95 | 983.3 |
| 20260504044541 | 39 | 252 | 4.3 | 12.2 | 0.02 | 0.67 | 0.03 | 95 | 976.2 |
| 20260504043033 | 39 | 288 | 6.1 | 13.9 | 0.02 | 0.66 | 0.02 | 95 | 975.4 |
| 20260504041531 | 39 | 255 | 4.3 | 9.6 | 0.02 | 0.66 | 0.02 | 95 | 974.7 |
| 20260504040026 | 40 | 278 | 5.2 | 7.8 | 0.02 | 0.66 | 0.02 | 95 | 974.0 |
| 20260504034525 | 39 | 115 | 0.0 | 1.7 | 0.02 | 0.65 | 0.02 | 95 | 973.5 |
| 20260504033024 | 39 | 115 | 0.0 | 5.2 | 0.02 | 0.65 | 0.01 | 95 | 973.3 |
| 20260504031522 | 39 | 79 | 1.7 | 7.8 | 0.02 | 0.64 | 0.00 | 95 | 973.5 |
| 20260504030027 | 39 | 89 | 3.5 | 12.2 | 0.02 | 0.63 | 0.63 | 95 | 974.0 |
| 20260504024516 | 39 | 113 | 4.3 | 17.4 | 0.02 | 0.63 | 0.63 | 95 | 974.5 |
| 20260504023011 | 39 | 88 | 7.0 | 15.6 | 0.02 | 0.62 | 0.62 | 95 | 975.7 |
| 20260504021508 | 40 | 191 | 7.0 | 16.5 | 0.01 | 0.61 | 0.61 | 95 | 976.7 |
| 20260504020006 | 40 | 134 | 6.1 | 13.9 | 0.00 | 0.61 | 0.61 | 95 | 977.6 |
| 20260504014619 | 40 | 77 | 8.7 | 19.1 | 0.01 | 0.61 | 0.61 | 95 | 978.3 |
| 20260504013101 | 41 | 104 | 8.7 | 18.2 | 0.01 | 0.61 | 0.61 | 95 | 979.1 |
| 20260504011558 | 42 | 133 | 7.0 | 14.8 | 0.02 | 0.61 | 0.61 | 95 | 980.0 |
| 20260504010056 | 42 | 112 | 7.8 | 19.1 | 0.03 | 0.61 | 0.61 | 95 | 980.9 |
| 20260504004547 | 42 | 86 | 4.3 | 9.6 | 0.03 | 0.60 | 0.60 | 95 | 981.4 |
| 20260504003049 | 42 | 73 | 4.3 | 13.0 | 0.05 | 0.60 | 0.60 | 95 | 982.0 |
| 20260504001542 | 41 | 60 | 6.1 | 11.3 | 0.04 | 0.57 | 0.57 | 95 | 982.6 |
| 20260504000038 | 42 | 30 | 6.1 | 24.3 | 0.05 | 0.56 | 0.56 | 95 | 983.1 |
| 20260503234545 | 42 | 43 | 4.3 | 16.5 | 0.06 | 0.56 | 0.56 | 95 | 983.9 |
| 20260503233034 | 41 | 32 | 7.8 | 29.5 | 0.09 | 0.55 | 0.55 | 95 | 984.6 |
| 20260503231530 | 41 | 16 | 7.0 | 18.2 | 0.14 | 0.54 | 0.54 | 95 | 985.5 |
| 20260503230028 | 40 | 30 | 3.5 | 14.8 | 0.16 | 0.53 | 0.53 | 95 | 986.8 |
| 20260503224524 | 40 | 119 | 3.5 | 15.6 | 0.18 | 0.50 | 0.50 | 94 | 987.5 |
| 20260503223023 | 39 | 38 | 9.6 | 17.4 | 0.17 | 0.45 | 0.45 | 94 | 988.0 |
| 20260503221522 | 39 | 53 | 8.7 | 19.1 | 0.17 | 0.40 | 0.40 | 94 | 989.2 |
| 20260503220033 | 39 | 48 | 7.8 | 19.1 | 0.20 | 0.36 | 0.36 | 94 | 990.1 |
| 20260503214509 | 39 | 48 | 4.3 | 10.4 | 0.18 | 0.32 | 0.32 | 94 | 991.7 |
| 20260503213010 | 39 | 31 | 3.5 | 16.5 | 0.15 | 0.28 | 0.28 | 94 | 992.4 |
| 20260503211504 | 39 | 72 | 5.2 | 17.4 | 0.12 | 0.24 | 0.24 | 94 | 993.6 |
| 20260503210002 | 40 | 99 | 3.5 | 13.9 | 0.06 | 0.16 | 0.16 | 93 | 994.1 |
| 20260503204600 | 40 | 105 | 3.5 | 16.5 | 0.06 | 0.14 | 0.14 | 93 | 994.6 |
| 20260503203103 | 41 | 38 | 5.2 | 12.2 | 0.06 | 0.13 | 0.13 | 93 | 994.9 |
| 20260503201556 | 42 | 126 | 3.5 | 14.8 | 0.08 | 0.12 | 0.12 | 93 | 995.6 |
| 20260503200056 | 42 | 128 | 4.3 | 13.0 | 0.07 | 0.09 | 0.09 | 93 | 996.5 |
| 20260503194551 | 43 | 34 | 6.1 | 14.8 | 0.09 | 0.09 | 0.09 | 93 | 996.3 |
| 20260503193053 | 43 | 95 | 5.2 | 12.2 | 0.06 | 0.06 | 0.06 | 93 | 997.7 |
| 20260503191548 | 43 | 70 | 6.1 | 12.2 | 0.04 | 0.04 | 0.04 | 92 | 997.8 |
| 20260503190042 | 44 | 33 | 2.6 | 8.7 | 0.02 | 0.02 | 0.02 | 90 | 999.2 |
| 20260503184554 | 44 | 82 | 4.3 | 12.2 | 0.00 | 0.00 | 0.00 | 87 | 999.6 |
| 20260503183053 | 44 | 345 | 7.0 | 13.9 | 0.00 | 0.00 | 0.00 | 87 | 999.7 |
| 20260503181537 | 43 | 45 | 6.1 | 12.2 | 0.00 | 0.00 | 0.00 | 89 | 1001.5 |
| 20260503180033 | 42 | 43 | 2.6 | 14.8 | 0.00 | 0.00 | 0.00 | 90 | 1002.0 |